Location: Strawberry
(45.6646°N, 111.9596°W)
Time: 19:34:35
(UTC+00:00)

Vanguard 1 Rocket - Pass Details

Date: 04 October 2022
Orbit: 650 x 4225 km, 34.3° (Epoch: 01 December)

Event Time Altitude Azimuth Distance (km) Brightness Sun altitude
Rises 01:20:33 0° 217° (SW) 8,449 13.0 -3.7°
Reaches altitude 10° 01:27:31 10° 211° (SSW) 7,272 12.4 -5.0°
Maximum altitude 01:47:06 35° 156° (SSE) 4,300 10.6 -8.4°
Enters shadow 01:59:01 12° 98° (E) 4,636 10.3 -10.5°
Drops below altitude 10° 01:59:35 10° 97° (E) 4,719 - -10.6°
Sets 02:02:53 0° 88° (E) 5,304 - -11.1°
